User: anonymous   Login
Location: Newark
(51.1667°N, 4.4833°E)
Time: 13:56:06
(UTC+00:00)
Language:

M-CUBED/EXP-1 PRIME - Orbit

View from above orbital plane
View from above orbital plane
View from above satellite
View from above satellite

Ground track
Ground track

The orbit data is extracted from the following two-line orbital elements,

1 37855U 11061F   19344.90724660 +.00001257 +00000-0 +70257-4 0  9992
2 37855 101.7251 330.5550 0172200 277.3087 080.8583 15.05867736442677
Epoch (UTC): 10 December 2019 21:46:26
Eccentricity: 0.0172200
inclination: 101.7251°
perigee height: 429 km
apogee height: 668 km
right ascension of ascending node: 330.5550°
argument of perigee: 277.3087°
revolutions per day: 15.05867736
mean anomaly at epoch: 80.8583°
orbit number at epoch: 44267

The dashed part of the orbit path shows where the satellite is in the earth's shadow,  

DLR